Weather History for Mena, AR

Change the Weather History Date:

Tuesday, February 26, 2013

  Actual Average (KFSM) Record (KFSM)
Temperature  
Mean Temperature 40 °F -  
Max Temperature 44 °F 54 °F 83 °F (1917)
Min Temperature 35 °F 34 °F 13 °F (1980)
Degree Days  
Heating Degree Days 26    
Moisture  
Dew Point 36 °F    
Average Humidity 87    
Maximum Humidity 100    
Minimum Humidity 66    
Precipitation  
Precipitation 0.06 in - - ()
Sea Level Pressure  
Sea Level Pressure 29.65 in    
Wind  
Wind Speed 13 mph (West)    
Max Wind Speed 24 mph    
Max Gust Speed 30 mph    
Visibility 9 miles    
Events Rain    
Averages and records for this station are not official NWS values.
T = Trace of Precipitation, MM = Missing Value Source: NWS Daily Summary

Daily Weather History Graph

Daily Weather History Graph

Search for Another Location

Airport:

Trip Planner

Search our weather history database for the weather conditions in past years. The results will help you decide how hot, cold, wet, or windy it might be!

Date:

Astronomy

Feb. 26, 2013 Rise Set
Actual Time 6:49 AM CST 6:10 PM CST
Civil Twilight 6:23 AM CST 6:35 PM CST
Nautical Twilight 5:54 AM CST 7:05 PM CST
Astronomical Twilight 5:25 AM CST 7:34 PM CST
Moon 7:22 PM CST (2/26) 6:56 AM CST (2/26)
Length of Visible Light 12h 11m
Length of Day
11h 21m
Full, 99% of the Moon is Illuminated
Feb 26
Full
Mar 4
Last Quarter
Mar 11
New
Mar 19
First Quarter
Mar 27
Full

Hourly Weather History & Observations

Time (CST) Temp. Windchill Dew Point Humidity Pressure Visibility Wind Dir Wind Speed Gust Speed Precip Events Conditions
12:15 AM 44.6 °F 37.8 °F 44.6 °F 100% 29.41 in 10.0 mi West 15.0 mph 20.7 mph 0.02 in   Overcast
12:35 AM 44.6 °F 37.8 °F 42.8 °F 93% 29.41 in 10.0 mi WSW 15.0 mph 20.7 mph 0.03 in   Scattered Clouds
12:55 AM 44.6 °F 38.1 °F 42.8 °F 93% 29.41 in 10.0 mi WSW 13.8 mph 21.9 mph 0.03 in   Scattered Clouds
1:15 AM 44.6 °F 38.8 °F 42.8 °F 93% 29.40 in 10.0 mi WSW 11.5 mph - 0.02 in   Mostly Cloudy
1:35 AM 44.6 °F 39.7 °F 44.6 °F 100% 29.40 in 10.0 mi WSW 9.2 mph 16.1 mph 0.02 in   Overcast
1:55 AM 44.6 °F 39.2 °F 44.6 °F 100% 29.41 in 7.0 mi WSW 10.4 mph 17.3 mph 0.02 in   Overcast
2:15 AM 44.6 °F 39.2 °F 44.6 °F 100% 29.40 in 10.0 mi WSW 10.4 mph - N/A   Overcast
2:35 AM 44.6 °F 39.2 °F 44.6 °F 100% 29.40 in 10.0 mi WSW 10.4 mph - N/A   Overcast
2:55 AM 42.8 °F 38.0 °F 42.8 °F 100% 29.40 in 5.0 mi WSW 8.1 mph - N/A Rain Light Rain
3:15 AM 42.8 °F 35.8 °F 42.8 °F 100% 29.41 in 5.0 mi West 13.8 mph 19.6 mph N/A   Drizzle
3:35 AM 41.0 °F 33.5 °F 41.0 °F 100% 29.42 in 10.0 mi West 13.8 mph 20.7 mph N/A   Overcast
3:55 AM 39.2 °F 29.6 °F 39.2 °F 100% 29.43 in 10.0 mi WSW 19.6 mph 25.3 mph N/A   Overcast
4:15 AM 37.4 °F 27.8 °F 37.4 °F 100% 29.43 in 10.0 mi WSW 17.3 mph 27.6 mph N/A   Overcast
4:35 AM 37.4 °F 27.8 °F 37.4 °F 100% 29.43 in 10.0 mi WSW 17.3 mph 24.2 mph N/A   Overcast
4:55 AM 37.4 °F 28.5 °F 37.4 °F 100% 29.43 in 10.0 mi WSW 15.0 mph 19.6 mph 0.01 in Rain Rain
5:15 AM 37.4 °F 28.9 °F 37.4 °F 100% 29.44 in 7.0 mi WSW 13.8 mph 21.9 mph N/A   Overcast
5:35 AM 37.4 °F 28.9 °F 37.4 °F 100% 29.45 in 10.0 mi West 13.8 mph 21.9 mph N/A   Overcast
5:55 AM 37.4 °F 28.9 °F 37.4 °F 100% 29.47 in 10.0 mi West 13.8 mph 21.9 mph N/A   Light Drizzle
6:15 AM 37.4 °F 27.8 °F 37.4 °F 100% 29.48 in 7.0 mi West 17.3 mph 24.2 mph N/A   Light Drizzle
6:35 AM 37.4 °F 28.2 °F 37.4 °F 100% 29.48 in 10.0 mi West 16.1 mph 26.5 mph N/A   Overcast
6:55 AM 37.4 °F 26.1 °F 37.4 °F 100% 29.48 in 10.0 mi West 24.2 mph 29.9 mph N/A   Overcast
7:15 AM 37.4 °F 27.5 °F 37.4 °F 100% 29.51 in 10.0 mi West 18.4 mph 25.3 mph N/A   Overcast
8:15 AM 37.4 °F 27.8 °F 35.6 °F 93% 29.57 in 7.0 mi West 17.3 mph 25.3 mph N/A Rain Light Rain
8:55 AM 37.4 °F 28.5 °F 35.6 °F 93% 29.59 in 10.0 mi WNW 15.0 mph 23.0 mph N/A   Overcast
9:35 AM 37.4 °F 27.8 °F 35.6 °F 93% 29.61 in 7.0 mi West 17.3 mph 25.3 mph N/A   Light Drizzle
9:55 AM 37.4 °F 28.2 °F 37.4 °F 100% 29.62 in 5.0 mi WNW 16.1 mph - N/A   Drizzle
10:15 AM 37.4 °F 26.4 °F 37.4 °F 100% 29.62 in 5.0 mi West 23.0 mph 27.6 mph N/A Rain Light Rain
10:35 AM 37.4 °F 28.2 °F 37.4 °F 100% 29.63 in 5.0 mi WNW 16.1 mph 28.8 mph N/A   Light Drizzle
10:55 AM 37.4 °F 27.5 °F 37.4 °F 100% 29.66 in 5.0 mi West 18.4 mph 27.6 mph N/A   Light Drizzle
11:15 AM 37.4 °F 28.5 °F 37.4 °F 100% 29.66 in 5.0 mi West 15.0 mph 24.2 mph N/A   Overcast
11:35 AM 39.2 °F 30.5 °F 37.4 °F 93% 29.67 in 10.0 mi West 16.1 mph 24.2 mph N/A   Overcast
11:55 AM 39.2 °F 29.6 °F 35.6 °F 87% 29.69 in 10.0 mi WNW 19.6 mph 27.6 mph N/A   Overcast
12:15 PM 39.2 °F 30.5 °F 37.4 °F 93% 29.69 in 7.0 mi West 16.1 mph 25.3 mph N/A   Overcast
12:35 PM 41.0 °F 37.1 °F 37.4 °F 87% 29.69 in 10.0 mi West 5.8 mph 17.3 mph N/A   Overcast
12:55 PM 41.0 °F 33.9 °F 35.6 °F 81% 29.69 in 10.0 mi West 12.7 mph 25.3 mph N/A   Overcast
1:15 PM 41.0 °F 31.4 °F 33.8 °F 76% 29.70 in 10.0 mi West 21.9 mph 26.5 mph N/A   Overcast
1:35 PM 41.0 °F 32.8 °F 33.8 °F 76% 29.71 in 10.0 mi WNW 16.1 mph 21.9 mph N/A   Overcast
1:55 PM 41.0 °F 32.8 °F 33.8 °F 76% 29.71 in 10.0 mi WNW 16.1 mph 23.0 mph N/A   Overcast
2:15 PM 41.0 °F 33.1 °F 33.8 °F 76% 29.71 in 10.0 mi West 15.0 mph 20.7 mph N/A   Overcast
2:35 PM 41.0 °F 34.3 °F 33.8 °F 76% 29.71 in 10.0 mi West 11.5 mph 20.7 mph N/A   Overcast
2:55 PM 41.0 °F 33.1 °F 33.8 °F 76% 29.73 in 10.0 mi West 15.0 mph 20.7 mph N/A   Overcast
3:15 PM 42.8 °F 35.1 °F 33.8 °F 70% 29.74 in 10.0 mi West 16.1 mph - N/A   Overcast
3:35 PM 42.8 °F 37.5 °F 33.8 °F 70% 29.74 in 10.0 mi West 9.2 mph - N/A   Overcast
3:55 PM 42.8 °F 36.6 °F 33.8 °F 70% 29.74 in 10.0 mi West 11.5 mph - N/A   Overcast
4:15 PM 42.8 °F - 33.8 °F 70% 29.75 in 10.0 mi Calm Calm - N/A   Overcast
4:35 PM 42.8 °F 39.3 °F 33.8 °F 70% 29.76 in 10.0 mi West 5.8 mph - N/A   Overcast
4:55 PM 44.6 °F 40.2 °F 33.8 °F 66% 29.76 in 10.0 mi West 8.1 mph - N/A   Overcast
5:15 PM 44.6 °F 42.2 °F 33.8 °F 66% 29.77 in 10.0 mi West 4.6 mph - N/A   Overcast
5:35 PM 44.6 °F 41.4 °F 33.8 °F 66% 29.77 in 10.0 mi WNW 5.8 mph - N/A   Overcast
5:55 PM 44.6 °F 40.2 °F 33.8 °F 66% 29.77 in 10.0 mi WNW 8.1 mph - N/A   Mostly Cloudy
6:15 PM 42.8 °F 40.1 °F 33.8 °F 70% 29.79 in 10.0 mi WNW 4.6 mph - N/A   Clear
6:35 PM 42.8 °F 41.1 °F 33.8 °F 70% 29.79 in 10.0 mi NNW 3.5 mph - N/A   Clear
6:55 PM 41.0 °F 39.0 °F 33.8 °F 76% 29.80 in 10.0 mi NNW 3.5 mph - N/A   Clear
7:15 PM 41.0 °F 36.4 °F 33.8 °F 76% 29.80 in 10.0 mi NW 6.9 mph - N/A   Clear
7:35 PM 41.0 °F 38.0 °F 33.8 °F 76% 29.82 in 10.0 mi West 4.6 mph - N/A   Clear
7:55 PM 41.0 °F 38.0 °F 33.8 °F 76% 29.83 in 10.0 mi West 4.6 mph - N/A   Clear
8:15 PM 39.2 °F 34.2 °F 33.8 °F 81% 29.83 in 10.0 mi NW 6.9 mph - N/A   Clear
8:35 PM 41.0 °F 36.4 °F 33.8 °F 76% 29.84 in 10.0 mi WNW 6.9 mph - N/A   Clear
8:55 PM 41.0 °F 36.4 °F 33.8 °F 76% 29.85 in 10.0 mi WNW 6.9 mph - N/A   Clear
9:15 PM 39.2 °F 33.6 °F 33.8 °F 81% 29.87 in 10.0 mi West 8.1 mph - N/A   Clear
9:35 PM 39.2 °F 35.0 °F 33.8 °F 81% 29.87 in 10.0 mi West 5.8 mph - N/A   Clear
9:55 PM 39.2 °F 33.6 °F 33.8 °F 81% 29.88 in 10.0 mi West 8.1 mph - N/A   Clear
10:15 PM 37.4 °F 31.4 °F 33.8 °F 87% 29.89 in 10.0 mi West 8.1 mph - N/A   Clear
10:35 PM 37.4 °F 32.8 °F 33.8 °F 87% 29.89 in 7.0 mi West 5.8 mph - N/A   Clear
10:55 PM 37.4 °F 33.8 °F 33.8 °F 87% 29.89 in 7.0 mi West 4.6 mph - N/A   Clear
11:15 PM 37.4 °F 34.9 °F 33.8 °F 87% 29.89 in 10.0 mi WSW 3.5 mph - N/A   Clear
11:35 PM 35.6 °F - 32.0 °F 87% 29.89 in 7.0 mi Calm Calm - N/A   Clear
11:55 PM 35.6 °F - 32.0 °F 87% 29.89 in 7.0 mi Calm Calm - N/A   Clear